Terug naar catalogus

STARLINK-5260

ActiefCommunicatieVLEO
NORAD 55275·PAYLOAD·🇺🇸 United States

Gelanceerd Jan 19, 2023 vanaf Vandenberg Space Force Base

Loading…

Volgende Passages (komende 24 uur)

TLE

VersSource: CelesTrak SupGP

Epoch: Sep 14, 2026, 22:09 UTC

1 55275C 23010G   26257.92340278  .00064218  00000+0  53814-2 0  2577
2 55275  69.9995 267.4429 0003644 267.1935  25.6189 14.98298943    16

Volg STARLINK-5260 in realtime met AllMySat

Download on the App Store